Location: Gibsondale
(40.9931°N, 80.2478°W)
Time: 17:58:38
(UTC+00:00)

USA 306 - Pass Details

Date: 29 October 2020
Orbit: 569 x 577 km, 54.0° (Epoch: 22 November)

Event Time Altitude Azimuth Distance (km) Brightness Sun altitude
Rises 22:43:03 0° 314° (NW) 2,786 6.9 -5.0°
Reaches altitude 10° 22:45:41 10° 329° (NNW) 1,884 5.8 -5.5°
Maximum altitude 22:49:08 23° 22° (NNE) 1,240 4.3 -6.2°
Drops below altitude 10° 22:52:34 10° 76° (ENE) 1,876 4.8 -6.8°
Enters shadow 22:52:56 - 79° (E) 1,993 5.0 -6.9°
